Regional Weather Roundup
Issued by NWS Charleston, SC

Current Version | Previous Version | Graphics & Text | Print | Product List | Glossary On
Versions: 1 2 3 4 5 6 7 8 9 10 11 12 13 14 15 16 17 18 19 20 21 22 23 24 25 26 27 28 29 30 31 32 33 34 35 36 37 38 39 40 41 42 43 44 45 46 47 48 49 50
000
ASUS42 KCHS 221812
RWRCHS

REGIONAL WEATHER ROUNDUP
NATIONAL WEATHER SERVICE CHARLESTON SC
200 PM EDT TUE AUG 22 2017

NOTE: "FAIR" INDICATES FEW OR NO CLOUDS BELOW 12,000 FEET WITH NO
SIGNIFICANT WEATHER AND/OR OBSTRUCTIONS TO VISIBILITY.

NOT ALL STATIONS ARE QUALITY CONTROLLED. USE DATA WITH CAUTION...
ESPECIALLY DEWPOINT OBSERVATIONS.

SCZ027-030-031-034>040-042>050-221900-
...SOUTHEAST SOUTH CAROLINA...

CITY           SKY/WX    TMP DP  RH WIND       PRES   REMARKS
N CHARLESTON   PTSUNNY   89  75  63 S9        30.08F HX  99
6HR MIN TEMP:  79; 6HR MAX TEMP:  89;

WATERFRONT PRK   N/A     86  76  72 S8        29.94F HX  96
JOHNS ISLAND   MOCLDY    88  75  66 S13       30.09S HX  97
PINOPOLIS        N/A     88  75  66 SW6       30.02F HX  97
MONCKS CORNER  FAIR      88  68  51 S7        30.08F HX  91
SUMMERVILLE    LGT RAIN  82  77  83 W7        30.10S HX  91
BEAUFORT MCAS  PTSUNNY   87  77  72 NW6       30.09F HX  99
6HR MIN TEMP:  77; 6HR MAX TEMP:  88;

BEAUFORT ARPT  FAIR      84  73  70 NW3       30.09F HX  91
HILTON HEAD IS PTSUNNY   82  77  83 SE5       30.11F HX  91
WALTERBORO     CLOUDY    81  77  89 W5        30.11F
ALLENDALE      NOT AVBL

...SOUTHERN MIDLANDS AND PEE DEE...

CITY           SKY/WX    TMP DP  RH WIND       PRES   REMARKS
GEORGETOWN     LGT RAIN  73  73 100 N7        30.10S
KINGSTREE      FAIR      82  75  78 CALM      30.09F
ORANGEBURG     CLOUDY    83  75  77 S10       30.09F HX  90
6HR MIN TEMP:  75; 6HR MAX TEMP:  89; 6HR PCP: TRACE;

BARNWELL       FAIR      91  75  59 S6G13     30.08F HX 102
AIKEN          MOCLDY    88  70  55 CALM      30.13F HX  92
MANNING        LGT RAIN  77  59  53 W8        30.09F
COLUMBIA       PTSUNNY   90  71  53 S3        30.07F HX  96
6HR MIN TEMP:  76; 6HR MAX TEMP:  93;

SUMTER         MOSUNNY   91  69  49 S6        30.05F HX  95
6HR MIN TEMP:  76; 6HR MAX TEMP:  91;

FLORENCE       CLOUDY    90  73  57 S12       30.07F HX  98
6HR MIN TEMP:  76; 6HR MAX TEMP:  90;

MYRTLE BEACH   PTSUNNY   84  77  79 S6        30.11S HX  94
N MYRTLE BEACH PTSUNNY   85  76  74 S8        30.09F HX  94
6HR MIN TEMP:  78; 6HR MAX TEMP:  86; 6HR PCP: TRACE;


$$

GAZ063-065-086>088-099>101-113>116-118-119-134>141-150-221900-
...SOUTHEAST GEORGIA...

CITY           SKY/WX    TMP DP  RH WIND       PRES   REMARKS
SAVANNAH ARPT  PTSUNNY   87  75  67 N8        30.09F HX  96
6HR MIN TEMP:  77; 6HR MAX TEMP:  90;

HUNTER AAF     CLOUDY    85  76  76 S8        30.07F HX  94
6HR MIN TEMP:  78; 6HR MAX TEMP:  88; 6HR PCP: TRACE;

FORT STEWART   PTSUNNY   82  76  82 E6        30.08F
6HR MIN TEMP:  74; 6HR MAX TEMP:  88; 6HR PCP:  0.09;

STATESBORO     MOSUNNY   90  67  46 CALM      30.09F HX  93
SYLVANIA       MOCLDY    88  76  67 CALM      30.10F HX  98
CLAXTON        MOCLDY    90  74  58 NW7       30.09F HX 100

...CSRA...CENTRAL AND FAR SOUTHEAST GEORGIA...

CITY           SKY/WX    TMP DP  RH WIND       PRES   REMARKS
THOMSON        CLOUDY    89  72  58 SW3       30.14F HX  95
AUGUSTA-BUSH   MOSUNNY   91  75  59 VRB3      30.08F HX 101
6HR MIN TEMP:  74; 6HR MAX TEMP:  93;

AUGUSTA-DANIEL PTSUNNY   88  69  53 S5        30.10F HX  92
SWAINSBORO     FAIR      90  72  55 CALM      30.10F HX  96
VIDALIA        MOSUNNY   90  72  55 CALM      30.09F HX  96
EASTMAN        FAIR      90  57  33 CALM      30.12F
HAZLEHURST     FAIR      90  61  36 CALM      30.09F HX  90
ALMA           PTSUNNY   91  73  55 VRB3      30.09F HX  99
6HR MIN TEMP:  75; 6HR MAX TEMP:  91; 6HR PCP: TRACE;

WAYCROSS       MOSUNNY   92  69  45 CALM      30.09F HX  97
JESUP          NOT AVBL
BAXLEY         PTSUNNY   86  73  66 NE5       30.09F HX  93
BRUNSWICK      CLOUDY    86  70  58 CALM      30.11S HX  90
SAINT SIMONS   MOSUNNY   88  77  69 SE8       30.10F HX 100
6HR MIN TEMP:  77; 6HR MAX TEMP:  88;


$$

SCZ027-028-034-036>038-045-046-048>050-GAZ119-141-221900-
...LAKE AND SUPPLEMENTAL COASTAL OBSERVATIONS...

STATION/POSITION TIME  TEMP    WIND        PRES    WAVE   SWELL
                       AIR SEA DIR/SP/G            HT/PER HT/PER/DIR
                 (UTC) (F)     (DEG/KT/KT) (MB)    (FT/S) (FT/S/D)
WINYAH BAY       1645   84     160/  4     1019.0
LAKE MURRAY      1720   87     190/  5/  7 1017.6
ACE BASIN NERRS  1645   86     230/  2     1020.0
FORT PULASKI     1742   84 87  180/  5/  8 1019.7F
SAPELO ISLAND    1700   87        CALM     1020.0

$$

ANZ835-935-AMZ111-154-330-350-352-354-370-450-454-472-221900-
...C-MAN AND BUOY OBSERVATIONS...

STATION/POSITION TIME  TEMP    WIND        PRES    WAVE   SWELL
                       AIR SEA DIR/SP/G            HT/PER HT/PER/DIR
                 (UTC) (F)     (DEG/KT/KT) (MB)    (FT/S) (FT/S/D)
BUOY 41004       1750   84 85  220/  6/  6 1018.8F   4/10   3/140/10
BUOY 41008       1750   83 86  120/  4/  6 1019.3F   3/10   3/120/10
FOLLY BEACH CMAN 1700   84     210/  9/ 10 1020.1F
CAPERS NEARSHORE 1708   84 86  220/  8/ 12 1019.2F
FRIPP NEARSHORE  1708   83     200/  6/ 10 1019.2F


STATION/POSITION TIME  TEMP    WIND        PRES    WAVE   SWELL
                       AIR SEA DIR/SP/G            HT/PER HT/PER/DIR
                 (UTC) (F)     (DEG/KT/KT) (MB)    (FT/S) (FT/S/D)
5E ST. MARYS GA  1730      89                N/A     3/10   2/110/11
FRYING PAN BUOY  1750   84 85  200/  8/ 10 1019.0F   3/ 9   3/140/ 9
BUOY 41025       1750   83 87  190/ 12/ 14 1018.8F   3/10   3/150/10
CAPE LOOKOUT NC  1700   85     200/  7/  8 1019.0F
BUOY 41002       1750   83 85  140/  8/ 10 1019.8F   5/ 9   5/100/ 9
BUOY 41010       1750   84 85  110/ 10/ 12 1018.2F   5/11   5/100/11
ST AUGUSTINE FL  1800   84 84   90/  5/  6 1019.8F


$$




USA.gov is the U.S. government's official web portal to all federal, state and local government web resources and services.